Regional Weather Roundup
Issued by NWS Kansas City/Pleasant Hill, MO

Home | Current Version | Previous Version | Text Only | Print | Product List | Glossary On
Versions: 1 2 3 4 5 6 7 8 9 10 11 12 13 14 15 16 17 18 19 20 21 22 23 24 25 26 27 28
000
ASUS43 KEAX 201610
RWREAX

WEATHER ROUNDUP FOR EASTERN KANSAS AND NORTHWEST MISSOURI
NATIONAL WEATHER SERVICE KANSAS CITY/PLEASANT HILL MO
1000 AM CST FRI JAN 20 2017

KSZ040-057-103>105-MOZ028-029-037-043-201700-
...KANSAS CITY METROPOLITAN AREA...

CITY           SKY/WX    TMP DP  RH WIND       PRES   REMARKS
K.C. INTL      FOG       46  44  93 SE8       29.56S VSB 1/8
K.C. DOWNTOWN  CLOUDY    48  48 100 E5        29.56R
LEES SUMMIT    CLOUDY    47  32  56 SE7       29.57R HAZE
OLATHE - IXD   FOG       47  47 100 SE6       29.56R VSB 1/2
OLATHE - OJC   CLOUDY    46  46 100 SE6       29.55R FOG
LAWRENCE       CLOUDY    47  47 100 E7        29.56R FOG

$$

MOZ001>008-011>017-020>025-030>033-038>040-044>046-053-054-201700-
...NORTHERN AND CENTRAL MISSOURI...

CITY           SKY/WX    TMP DP  RH WIND       PRES   REMARKS
ST. JOSEPH     CLOUDY    45  45 100 E5        29.56S FOG
MOSBY          CLOUDY    46  46 100 SE6       29.57S FOG
WARRENSBURG    CLOUDY    46  45  93 SE5       29.59R FOG
WHITEMAN AFB   CLOUDY    46  46 100 S5        29.58S FOG
CLINTON        CLOUDY    48  48 100 SE7       29.59R FOG
SEDALIA        CLOUDY    48  47  96 SE8       29.59F FOG
WARSAW         NOT AVBL
CHILLICOTHE      N/A     43  43 100 VRB5      29.61F
KIRKSVILLE     FOG       42  42 100 CALM      29.63F VSB 1/4

$$

MOZ041-047>049-056>058-063>065-088>090-097-201700-
...EASTERN AND SOUTHERN MISSOURI...

CITY           SKY/WX    TMP DP  RH WIND       PRES   REMARKS
ST. LOUIS INTL CLOUDY    51  48  89 S9        29.68R
SPIRIT OF STL  CLOUDY    51  49  92 CALM      29.66S
COLUMBIA       CLOUDY    49  49 100 SE6       29.61F FOG
JEFFERSON CITY CLOUDY    51  49  92 SE6       29.62F
ROLLA          CLOUDY    48  48 100 S8        29.62F
OSAGE BEACH    CLOUDY    50  48  93 SE7       29.61F
SPRINGFIELD    CLOUDY    50  47  89 S14       29.60R
BRANSON        CLOUDY    48  48 100 SE7       29.61S FOG
JOPLIN         CLOUDY    52  49  89 SE10      29.56S
WEST PLAINS    CLOUDY    50  48  93 SE7       29.64F

$$

IAZ060-094-KSZ022-034>040-054-083-096-NEZ052-066-093-201700-
...KANSAS...SOUTHEAST NEBRASKA AND IOWA...

CITY           SKY/WX    TMP DP  RH WIND       PRES   REMARKS
TOPEKA         FOG       46  44  93 E5        29.55R VSB 1/4
MANHATTAN      CLOUDY    46  45  96 NE3       29.52S FOG
EMPORIA        FOG       46  46 100 SE6       29.52S VSB 1/4
CHANUTE        CLOUDY    50  48  93 SE7       29.54S FOG
WICHITA        CLOUDY    48  46  93 SE7       29.49F FOG
OMAHA          DRIZZLE   42  38  85 SE7       29.56F FOG
LINCOLN        CLOUDY    41  41 100 CALM      29.54F FOG
FALLS CITY     FOG       42  42 100 NE6       29.53F VSB 1/4
LAMONI         FOG       39  39 100 VRB3      29.61R VSB 1/4
DES MOINES     FOG       38  38 100 CALM      29.62S VSB 1/4

$$





USA.gov is the U.S. government's official web portal to all federal, state and local government web resources and services.